Regional Weather Roundup
Issued by NWS

Home | Current Version | Previous Version | Graphics & Text | Print | Product List | Glossary On
Versions: 1 2 3 4 5 6 7 8 9 10 11 12 13 14 15 16 17 18 19 20 21 22 23 24 25 26 27 28 29 30 31 32 33 34 35 36 37 38 39 40 41 42 43 44 45 46 47 48 49 50
058
ASUS44 KJAN 200903
RWRMS

MISSISSIPPI HOURLY WEATHER ROUNDUP
NATIONAL WEATHER SERVICE JACKSON MS
300 AM CST SAT DEC 20 2014

NOTE: "FAIR: INDICATES FEW OR NO CLOUDS BELOW 12,000 FEET WITH NO
SIGNIFICANT WEATHER AND/OR OBSTRUCTIONS TO VISIBILITY.

MSZ001>002-007>008-010>013-018>021-025>028-034>036-201000-
NORTHWEST MISSISSIPPI

CITY           SKY/WX    TMP DP  RH WIND       PRES   REMARKS
CLARKSDALE     FAIR      36  36 100 CALM      30.23S
CLEVELAND      PTSUNNY   38  38 100 N5        30.21F WCI  35
GREENWOOD      CLOUDY    41  38  89 N3        30.21S
GREENVILLE     CLOUDY    42  39  89 NE7       30.20F
GRENADA        CLOUDY    39  36  87 CALM      30.23R
OLIVE BRANCH   CLEAR     32  32 100 CALM      30.23S
OXFORD         FAIR      34  32  93 CALM      30.23R FOG
TUNICA         SUNNY     34  32  93 N6        30.24S WCI  29
$$

MSZ003>006-009-014>017-022>024-029>033-037>039-201000-
NORTHEAST MISSISSIPPI

CITY           SKY/WX    TMP DP  RH WIND       PRES   REMARKS
COLUMBUS AFB   CLOUDY    40  37  87 N6        30.21R
CORINTH        PTSUNNY   37  32  81 N5        30.21S WCI  34
GOLDN TRIANGLE CLOUDY    41  37  87 N6        30.19S
STARKVILLE     CLOUDY    41  37  87 CALM      30.20R
TUPELO         MOCLDY    37  34  89 NE7       30.21R WCI  32
$$

MSZ040-058-201000-
CENTRAL MISSISSIPPI

CITY           SKY/WX    TMP DP  RH WIND       PRES   REMARKS
JACKSON INTL   CLOUDY    46  43  89 NE7       30.17S
JACKSON HAWKNS CLOUDY    45  42  89 NE7       30.17S
MERIDIAN KEY   LGT RAIN  43  41  93 N9        30.16S
MERIDIAN NAS   CLOUDY    43  41  93 N5        30.17S
RAYMOND        CLOUDY    45  41  87 CALM      30.17F
VICKSBURG      CLOUDY    46  43  89 N10       30.18F
$$

MSZ059>079-201000-
SOUTH MISSISSIPPI

CITY           SKY/WX    TMP DP  RH WIND       PRES   REMARKS
HATTIESBURG    CLOUDY    46  44  93 N10       30.14R
MCCOMB         CLOUDY    46  43  89 N7        30.11F
NATCHEZ        CLOUDY    45  43  93 N7        30.16S
PINE BELT      CLOUDY    45  41  87 N10       30.14R
$$

MSZ080>082-201000-
COASTAL MISSISSIPPI

CITY           SKY/WX    TMP DP  RH WIND       PRES   REMARKS
BILOXI         LGT RAIN  48  48 100 NE13      30.07S
PASCAGOULA     RAIN      47  46  97 NE8       30.09R FOG
GULFPORT       LGT RAIN  48  46  93 N9        30.07S
$$



USA.gov is the U.S. government's official web portal to all federal, state and local government web resources and services.